Regional Weather Roundup
Issued by NWS

Home | Current Version | Previous Version | Text Only | Print | Product List | Glossary On
Versions: 1 2 3 4 5 6 7 8 9 10 11 12 13 14 15 16 17 18 19 20 21 22 23 24 25 26 27 28 29 30 31 32 33 34 35 36 37 38 39 40 41 42 43 44 45 46 47 48 49 50
000
ASUS44 KOUN 260810
RWROK

WEATHER ROUNDUP FOR OKLAHOMA
NATIONAL WEATHER SERVICE NORMAN OK
300 AM CDT TUE MAY 26 2015

NOTE: "FAIR" INDICATES FEW OR NO CLOUDS BELOW 12,000 FEET WITH NO
      SIGNIFICANT WEATHER AND/OR OBSTRUCTIONS TO VISIBILITY.

OKZ001>007-009>012-014-015-017-260900-
NORTHWEST OKLAHOMA AND THE PANHANDLE

CITY           SKY/WX    TMP DP  RH WIND       PRES   REMARKS
GAGE           CLEAR     50  49  96 CALM      29.88S
GUYMON         CLEAR     53  50  89 CALM      29.89S
ENID/WOODRING  PTCLDY    57  57 100 W5        29.87R
$$

OKZ016-021>023-033>039-044-045-260900-
SOUTHWEST OKLAHOMA

CITY           SKY/WX    TMP DP  RH WIND       PRES   REMARKS
LAWTON/REGL    FOG       56  55  97 E3        29.87S VSB 1/4
LAWTON/FT SILL CLEAR     55  55 100 SE5       29.87  FOG
FREDERICK      CLEAR     57  55  93 CALM      29.85R
CLINTON        MOCLDY    54  52  93 CALM      29.89S
HOBART         CLEAR     54  53  97 NE5       29.87F
ALTUS AFB      CLEAR     55  55  99 CALM      29.86
$$

OKZ018>020-024>031-260900-
CENTRAL OKLAHOMA

CITY           SKY/WX    TMP DP  RH WIND       PRES   REMARKS
OKLAHOMA CITY  PTCLDY    54  53  97 CALM      29.86R
OKC/WILEY POST PTCLDY    56  54  93 SW5       29.86S
OKC/TINKER AFB PTCLDY    56  55  96 S5        29.85R
STILLWATER     PTCLDY    58  56  93 SW5       29.86R
GUTHRIE        CLEAR     57  55  93 E3        29.87R
$$

OKZ008-013-054>072-260900-
NORTHEAST OKLAHOMA

CITY           SKY/WX    TMP DP  RH WIND       PRES   REMARKS
TULSA          MOCLDY    61  60  97 S5        29.84S
TULSA/JONES    MOCLDY    58  57  97 CALM      29.85F FOG
PONCA CITY     MOCLDY    61  59  93 SW6       29.84S
BARTLESVILLE   MOCLDY    60  60 100 CALM      29.84S
MUSKOGEE       CLOUDY    62  60  93 S8        29.87S
$$

OKZ032-040>043-046>053-073>077-260900-
SOUTH CENTRAL/SOUTHEAST OKLAHOMA

CITY           SKY/WX    TMP DP  RH WIND       PRES   REMARKS
ARDMORE/DWNTWN CLOUDY    59  59 100 CALM      29.89R FOG
MCALESTER      LGT RAIN  62  61  96 S3        29.89F
$$




USA.gov is the U.S. government's official web portal to all federal, state and local government web resources and services.